Track IRIDIUM 132 now! 10-day predictions IRIDIUM 132 is classified as:
1 42961U 17061G 25194.91428863 .00000148 00000-0 45638-4 0 9992 2 42961 86.4010 166.6308 0002296 82.8850 277.2607 14.34221028406337